FENGYUN 1C DEB, 31509

Orbit data source: Space-Track

FENGYUN 1C DEB, 31509 is space debris in SSO originally from a launch on Mon, 10 May 1999 UTC launched from the Taiyaun Space Center, China (TSC). Fengyun 1C debris stems from the Chinese weather satellite Fengyun-1C, which was intentionally destroyed by a Chinese anti-satellite missile in 2007. This event dramatically increased the amount of space debris, with thousands of trackable fragments posing hazards to satellites and human spaceflight. The Fengyun 1C debris cloud has become a focal point in discussions about space sustainability and the need for international regulations to prevent the creation of new debris.

Loading next visibility...
Identifier
31509, 1999-025BWY
Orbit
SSO
Country
Flag of CNCN / PRC
Related business
Manufacturer
Unknown
Mission
Spacecraft
Bus & Motor
Unknown
Mass
Unknown
Launch date (UTC)
1999-05-10 (27 years ago)
Launch vehicle
Unknown
Launch site
Taiyaun Space Center, China (TSC)
Object type
Payload
Rocket body
Debris
Shape & HBR
Unknown shape, 0.1 m
Radar Cross Section
Small (<0.1 m²)

Expand to show TLE details & history
Last TLE update: 15 hours ago

TLE from 15 hours ago
0 FENGYUN 1C DEB
1 31509U 99025BWY 25353.26460131  .00002687  00000-0  17061-2 0  9994
2 31509  99.0220 112.3741 0204478 200.8751 158.3972 13.94931854940532
Epoch: 2025-12-19T06:21Z
TLE epoch observation values (Epoch: 2025-12-19T06:21:01.553Z)
Latitude
-0°
Longitude
-70.99062°
Altitude
1,053.283 km
Speed
7.255 km/s
True Right ascension
07h 29m 29s
True Declination
0° 00' 00"
Sunlit
Object was in full shadow at epoch
Visualization orbit readout
Latitude
Unknown
Longitude
Unknown
Altitude
Unknown
Speed
Unknown
Apparent Right ascension
Unknown
Apparent Declination
Unknown
Sunlit
N/A
Visualization observer readout
Local Sidereal Time
20:37:25
Azimuth
Unknown
Elevation
Unknown
Doppler factor
Unknown
Orbital elements
Apogee altitude
1,057.602 km
Perigee altitude
759.606 km
Semi-major axis
7,286.741 km
Eccentricity
0.02045
Inclination
99.022°
RAAN
112.3741°
Arg. of periapsis
200.8751°
True anomaly
159.2398°
Mean anomaly
158.3972°
Eccentric anomaly
158.82048°
Mean motion
3.48934 °/min
Orbital period
103.17 mins
BSTAR
0.0017061
Loading maneuver chart data...
Computing Atmospheric mass density...

Documentation

Showing up to 5 results
|